GW2011 Weather Reports


Display with metric or nautical units.
time (UTC)temp
F
wind
direction
speed
MPH
gust
MPH
rain 1hr
in
rain 24hr
in
rain mn
in
humidity
%
barometer
mb
20260906062020 72 135 0.0 3.0 0.00 0.00 0.00 90 1014.5
20260906061543 72 130 1.0 3.0 0.00 0.00 0.00 90 1014.5
20260906061020 72 0 0.0 2.0 0.00 0.00 0.00 89 1014.5
20260906060521 72 0 0.0 3.0 0.00 0.00 0.00 90 1014.3
20260906060037 72 135 1.0 5.0 0.00 0.00 0.00 89 1014.3
20260906055519 72 142 3.0 5.0 0.00 0.00 0.00 89 1014.2
20260906055019 72 130 2.0 4.0 0.00 0.00 0.00 89 1014.1
20260906054544 72 129 2.0 4.0 0.00 0.00 0.00 89 1014.3
20260906054018 72 128 1.0 4.0 0.00 0.00 0.00 89 1014.2
20260906053518 72 128 2.0 5.0 0.00 0.00 0.00 88 1014.2
20260906053044 73 134 2.0 6.0 0.00 0.00 0.00 88 1014.2
20260906052523 73 112 1.0 6.0 0.00 0.00 0.00 88 1014.1
20260906052020 73 126 0.0 8.0 0.00 0.00 0.00 88 1014.0
20260906051540 73 131 2.0 8.0 0.00 0.00 0.00 88 1014.0
20260906051024 73 130 4.0 8.0 0.00 0.00 0.00 89 1014.0
20260906050519 73 97 1.0 3.0 0.00 0.00 0.00 88 1014.1
20260906050046 73 103 1.0 3.0 0.00 0.00 0.00 88 1013.9
20260906045520 73 69 1.0 4.0 0.00 0.00 0.00 88 1013.8
20260906045018 73 74 1.0 4.0 0.00 0.00 0.00 87 1013.7
20260906044541 73 95 1.0 4.0 0.00 0.00 0.00 87 1013.7
20260906044021 74 96 1.0 6.0 0.00 0.00 0.00 87 1013.6
20260906043518 74 74 0.0 6.0 0.00 0.00 0.00 86 1013.7
20260906043040 74 97 1.0 3.0 0.00 0.00 0.00 86 1013.8
20260906042520 74 0 1.0 3.0 0.00 0.00 0.00 86 1014.0
20260906042020 74 125 1.0 3.0 0.00 0.00 0.00 86 1014.0
20260906041540 74 0 1.0 3.0 0.00 0.00 0.00 86 1014.0
20260906041020 74 99 1.0 3.0 0.00 0.00 0.00 86 1014.0
20260906040520 74 96 1.0 2.0 0.00 0.00 0.00 85 1014.0
20260906040041 74 96 0.0 3.0 0.00 0.00 0.00 85 1013.9
20260906035522 74 96 0.0 3.0 0.00 0.00 0.00 85 1013.9
20260906035019 74 145 0.0 3.0 0.00 0.00 0.00 85 1014.0
20260906034543 74 100 1.0 3.0 0.00 0.00 0.00 85 1014.1
20260906034020 75 76 0.0 3.0 0.00 0.00 0.00 84 1014.1
20260906033520 75 105 1.0 3.0 0.00 0.00 0.00 84 1014.1
20260906033044 75 0 0.0 2.0 0.00 0.00 0.00 85 1014.0
20260906032519 75 0 0.0 2.0 0.00 0.00 0.00 85 1014.2
20260906032020 75 0 0.0 2.0 0.00 0.00 0.00 85 1014.2
20260906031537 75 123 0.0 2.0 0.00 0.00 0.00 85 1014.2
20260906031019 75 0 0.0 2.0 0.00 0.00 0.00 87 1014.2
20260906030520 74 0 0.0 2.0 0.00 0.00 0.00 87 1014.1
20260906030040 73 109 0.0 3.0 0.00 0.00 0.00 88 1014.2
20260906025518 73 0 0.0 3.0 0.00 0.00 0.00 89 1014.1
20260906025018 72 0 1.0 3.0 0.00 0.00 0.00 89 1014.2
20260906024539 72 0 0.0 0.0 0.00 0.00 0.00 89 1014.3
20260906024018 72 0 0.0 0.0 0.00 0.00 0.00 88 1014.2
20260906023522 72 0 0.0 0.0 0.00 0.00 0.00 88 1014.2
20260906023035 72 0 0.0 0.0 0.00 0.00 0.00 88 1014.0
20260906022520 72 0 0.0 0.0 0.00 0.00 0.00 87 1013.9
20260906022020 72 0 0.0 0.0 0.00 0.00 0.00 88 1013.9
20260906021547 72 0 0.0 0.0 0.00 0.00 0.00 88 1014.0
20260906021022 72 0 0.0 0.0 0.00 0.00 0.00 86 1014.0
20260906020519 72 0 0.0 0.0 0.00 0.00 0.00 86 1014.0
20260906020049 73 0 0.0 0.0 0.00 0.00 0.00 86 1013.8
20260906015518 73 0 0.0 0.0 0.00 0.00 0.00 85 1013.6
20260906015020 73 0 0.0 0.0 0.00 0.00 0.00 84 1013.6
20260906014545 73 0 0.0 0.0 0.00 0.00 0.00 84 1013.9
20260906014019 74 0 0.0 0.0 0.00 0.00 0.00 83 1013.8
20260906013520 74 0 0.0 0.0 0.00 0.00 0.00 83 1013.8
20260906013041 75 0 0.0 0.0 0.00 0.00 0.00 82 1013.5
20260906012520 76 0 0.0 0.0 0.00 0.00 0.00 80 1013.5
20260906012020 76 0 0.0 1.0 0.00 0.00 0.00 80 1013.2
20260906011538 77 0 0.0 1.0 0.00 0.00 0.00 80 1013.1
20260906011019 77 0 0.0 0.0 0.00 0.00 0.00 78 1013.0
20260906010524 78 0 0.0 2.0 0.00 0.00 0.00 79 1012.7
20260906010038 78 0 0.0 2.0 0.00 0.00 0.00 80 1012.5
20260906005522 78 130 0.0 3.0 0.00 0.00 0.00 79 1012.3
20260906005020 78 130 1.0 3.0 0.00 0.00 0.00 77 1012.1
20260906004543 79 0 0.0 3.0 0.00 0.00 0.00 75 1012.3
20260906004024 79 130 1.0 6.0 0.00 0.00 0.00 74 1012.2
20260906003518 79 130 3.0 7.0 0.00 0.00 0.00 76 1012.0
20260906003040 79 130 2.0 8.0 0.00 0.00 0.00 75 1012.3
20260906002519 79 130 5.0 9.0 0.00 0.00 0.00 74 1012.0
20260906002019 80 126 6.0 9.0 0.00 0.00 0.00 73 1011.8
20260906001539 80 130 2.0 8.0 0.00 0.00 0.00 73 1011.7
20260906001019 80 136 4.0 8.0 0.00 0.00 0.00 73 1011.9
20260906000517 80 135 2.0 8.0 0.00 0.00 0.00 73 1011.8
20260906000041 80 140 4.0 9.0 0.00 0.00 0.00 72 1011.9
20260905235521 80 123 4.0 9.0 0.00 0.00 0.00 74 1012.1
20260905235023 80 127 3.0 7.0 0.00 0.00 0.00 72 1011.9
20260905234542 81 131 2.0 9.0 0.00 0.00 0.00 72 1012.0
20260905234020 81 130 1.0 11.0 0.00 0.00 0.00 72 1012.1
20260905233519 81 143 5.0 13.0 0.00 0.00 0.00 71 1011.9
20260905233042 81 129 2.0 13.0 0.00 0.00 0.00 71 1011.8
20260905232524 81 121 5.0 12.0 0.00 0.00 0.00 70 1011.7
20260905232020 81 128 3.0 12.0 0.00 0.00 0.00 72 1011.8
20260905231544 81 121 7.0 14.0 0.00 0.00 0.00 71 1011.8
20260905231022 81 127 9.0 14.0 0.00 0.00 0.00 72 1011.8
20260905230517 81 133 6.0 12.0 0.00 0.00 0.00 73 1011.8
20260905230056 81 123 4.0 11.0 0.00 0.00 0.00 73 1011.9
20260905225518 81 146 2.0 12.0 0.00 0.00 0.00 75 1011.9
20260905225017 81 91 6.0 12.0 0.00 0.00 0.00 74 1011.8
20260905224540 81 116 0.0 6.0 0.00 0.00 0.00 76 1012.0
20260905224020 81 133 2.0 5.0 0.00 0.00 0.00 75 1012.0
20260905223518 81 98 1.0 4.0 0.00 0.00 0.00 75 1012.2
20260905223042 81 0 0.0 5.0 0.00 0.00 0.00 76 1012.3
20260905222520 81 118 1.0 5.0 0.00 0.00 0.00 77 1012.0
20260905222023 81 110 1.0 5.0 0.00 0.00 0.00 76 1012.1
20260905221538 81 105 1.0 4.0 0.00 0.00 0.00 77 1012.0
20260905221020 81 87 1.0 3.0 0.00 0.00 0.00 76 1012.0
20260905220519 81 92 1.0 3.0 0.00 0.00 0.00 77 1012.0
20260905220041 81 84 1.0 3.0 0.00 0.00 0.00 78 1012.0
20260905215519 81 140 1.0 4.0 0.00 0.00 0.00 78 1011.9
20260905215022 81 111 1.0 5.0 0.00 0.00 0.00 79 1011.8
20260905214542 81 0 2.0 5.0 0.00 0.00 0.00 78 1011.9
20260905214019 81 105 2.0 4.0 0.00 0.00 0.00 77 1011.8
20260905213523 81 106 1.0 4.0 0.00 0.00 0.00 79 1011.7
20260905213040 81 103 1.0 4.0 0.00 0.00 0.00 79 1011.7
20260905212523 81 95 1.0 6.0 0.00 0.00 0.00 79 1011.9
20260905212019 81 84 2.0 6.0 0.00 0.00 0.00 79 1012.0
20260905211541 81 81 2.0 4.0 0.00 0.00 0.00 79 1012.0
20260905211019 81 87 1.0 4.0 0.00 0.00 0.00 80 1012.1
20260905210517 81 99 1.0 4.0 0.00 0.00 0.00 80 1012.2
20260905210039 80 85 1.0 6.0 0.00 0.00 0.00 80 1012.3
20260905205521 80 92 1.0 6.0 0.00 0.00 0.00 80 1012.4
20260905205019 80 98 1.0 4.0 0.00 0.00 0.00 80 1012.5
20260905204542 80 55 1.0 4.0 0.00 0.00 0.00 80 1012.5
20260905204017 80 57 1.0 4.0 0.00 0.00 0.00 81 1012.5
20260905203518 79 88 1.0 4.0 0.00 0.00 0.00 82 1012.5
20260905203039 79 92 1.0 4.0 0.00 0.00 0.00 83 1012.5
20260905202520 79 103 1.0 5.0 0.00 0.00 0.00 83 1012.8
20260905202020 79 92 1.0 6.0 0.00 0.00 0.00 82 1012.7
20260905201541 78 136 1.0 6.0 0.00 0.00 0.00 84 1012.8
20260905201019 78 96 1.0 5.0 0.00 0.00 0.00 84 1012.8
20260905200523 78 100 1.0 5.0 0.00 0.00 0.00 83 1012.9
20260905200041 78 83 1.0 6.0 0.00 0.00 0.00 83 1013.0
20260905195520 78 90 2.0 6.0 0.00 0.00 0.00 83 1013.0
20260905195022 77 82 2.0 4.0 0.00 0.00 0.00 83 1013.0
20260905194541 77 90 2.0 4.0 0.00 0.00 0.00 83 1013.1
20260905194019 77 99 1.0 4.0 0.00 0.00 0.00 82 1013.3
20260905193520 77 53 1.0 4.0 0.00 0.00 0.00 84 1013.2
20260905193051 76 68 2.0 4.0 0.00 0.00 0.00 85 1013.2
20260905192521 76 142 1.0 6.0 0.00 0.00 0.00 85 1013.3
20260905192017 76 90 2.0 6.0 0.00 0.00 0.00 85 1013.4
20260905191543 76 80 1.0 4.0 0.00 0.00 0.00 85 1013.4
20260905191018 75 82 1.0 4.0 0.00 0.00 0.00 86 1013.4
20260905190522 75 74 1.0 3.0 0.00 0.00 0.00 85 1013.4
20260905190039 75 50 1.0 4.0 0.00 0.00 0.00 85 1013.4
20260905185519 74 104 2.0 6.0 0.00 0.00 0.00 86 1013.4
20260905185018 74 97 2.0 6.0 0.00 0.00 0.00 86 1013.6
20260905184543 74 91 1.0 4.0 0.00 0.00 0.00 85 1013.6
20260905184020 74 131 1.0 4.0 0.00 0.00 0.00 86 1013.5
20260905183521 74 14 1.0 4.0 0.00 0.00 0.00 86 1013.5
20260905183046 73 74 1.0 4.0 0.00 0.00 0.00 86 1013.4
20260905182519 73 89 1.0 4.0 0.00 0.00 0.00 87 1013.5
20260905182020 73 71 1.0 3.0 0.00 0.00 0.00 87 1013.7
20260905181540 72 57 1.0 4.0 0.00 0.00 0.00 87 1013.8
20260905181020 72 40 1.0 4.0 0.00 0.00 0.00 88 1013.8
20260905180518 72 110 1.0 4.0 0.00 0.00 0.00 88 1014.0
20260905180036 71 137 1.0 4.0 0.00 0.00 0.00 88 1014.1
20260905175517 71 71 0.0 3.0 0.00 0.00 0.00 88 1014.1
20260905175020 71 92 1.0 3.0 0.00 0.00 0.00 88 1014.2
20260905174539 71 97 1.0 4.0 0.00 0.00 0.00 88 1014.3
20260905174018 70 80 1.0 8.0 0.00 0.00 0.00 88 1014.4
20260905173518 70 129 2.0 8.0 0.00 0.00 0.00 88 1014.5
20260905173042 70 128 1.0 7.0 0.00 0.00 0.00 88 1014.7
20260905172520 70 131 4.0 8.0 0.00 0.00 0.00 89 1015.1
20260905172018 70 142 4.0 8.0 0.00 0.00 0.00 88 1015.2
20260905171537 70 128 2.0 9.0 0.00 0.00 0.00 88 1015.1
20260905171018 69 122 4.0 9.0 0.00 0.00 0.00 89 1015.0
20260905170519 69 97 0.0 4.0 0.00 0.00 0.00 88 1015.0
20260905170038 69 110 0.0 4.0 0.00 0.00 0.00 89 1015.0
20260905165518 69 115 1.0 4.0 0.00 0.00 0.00 89 1014.8
20260905165021 69 98 1.0 4.0 0.00 0.00 0.00 89 1014.7
20260905164537 69 98 0.0 4.0 0.00 0.00 0.00 89 1014.8
20260905164018 69 78 1.0 4.0 0.00 0.00 0.00 89 1014.7
20260905163521 68 97 1.0 3.0 0.00 0.00 0.00 90 1014.8
20260905163042 68 128 1.0 3.0 0.00 0.00 0.00 90 1014.8
20260905162518 68 115 1.0 4.0 0.00 0.00 0.00 90 1014.8
20260905162018 68 115 1.0 6.0 0.00 0.00 0.00 90 1014.9
20260905161539 67 223 2.0 6.0 0.00 0.00 0.00 92 1014.7
20260905161020 67 93 1.0 5.0 0.00 0.00 0.00 90 1014.7
20260905160519 67 85 1.0 5.0 0.00 0.00 0.00 92 1014.6
20260905160037 67 103 1.0 4.0 0.00 0.00 0.00 92 1014.7
20260905155520 66 64 1.0 4.0 0.00 0.00 0.00 92 1014.6
20260905155022 66 121 1.0 9.0 0.00 0.00 0.00 92 1014.6
20260905154552 66 56 1.0 9.0 0.00 0.00 0.00 92 1014.6
20260905154018 66 126 1.0 6.0 0.00 0.00 0.00 93 1014.6
20260905153520 65 67 2.0 6.0 0.00 0.00 0.00 93 1014.4
20260905153039 65 0 1.0 4.0 0.00 0.00 0.00 94 1014.6
20260905152520 65 53 1.0 4.0 0.00 0.00 0.00 93 1014.7
20260905152022 65 88 1.0 4.0 0.00 0.00 0.00 94 1014.9
20260905151538 64 44 1.0 3.0 0.00 0.00 0.00 93 1014.8
20260905151017 64 57 1.0 4.0 0.00 0.00 0.00 94 1014.9
20260905150518 64 82 1.0 4.0 0.00 0.00 0.00 95 1014.8
20260905150042 64 62 1.0 3.0 0.00 0.00 0.00 94 1014.6
20260905145523 64 46 1.0 3.0 0.00 0.00 0.00 94 1014.4
20260905145020 64 63 0.0 3.0 0.00 0.00 0.00 95 1014.6
20260905144541 64 62 1.0 3.0 0.00 0.00 0.00 95 1014.4
20260905144019 64 66 0.0 3.0 0.00 0.00 0.00 94 1014.7
20260905143519 64 63 1.0 3.0 0.00 0.00 0.00 95 1014.8
20260905143039 64 71 0.0 3.0 0.00 0.00 0.00 94 1015.1
20260905142519 64 80 1.0 4.0 0.00 0.00 0.00 95 1015.0
20260905142020 64 17 1.0 4.0 0.00 0.00 0.00 95 1014.8
20260905141540 63 94 1.0 4.0 0.00 0.00 0.00 95 1014.7
20260905141023 63 80 1.0 3.0 0.00 0.00 0.00 95 1015.0
20260905140522 63 71 1.0 3.0 0.00 0.00 0.00 95 1014.9
20260905140041 63 87 0.0 3.0 0.00 0.00 0.00 95 1015.1
20260905135519 63 0 0.0 2.0 0.00 0.00 0.00 95 1015.2
20260905135018 63 0 0.0 3.0 0.00 0.00 0.00 95 1015.2
20260905134545 63 0 1.0 3.0 0.00 0.00 0.00 95 1014.7
20260905134020 63 65 0.0 4.0 0.00 0.00 0.00 95 1014.6
20260905133523 63 97 1.0 4.0 0.00 0.00 0.00 95 1014.5
20260905133037 63 57 1.0 4.0 0.00 0.00 0.00 95 1014.6
20260905132519 63 62 1.0 4.0 0.00 0.00 0.00 95 1014.4
20260905132020 63 56 2.0 8.0 0.00 0.00 0.00 95 1014.1
20260905131539 63 82 2.0 8.0 0.00 0.00 0.00 95 1014.0
20260905131020 64 88 2.0 7.0 0.00 0.00 0.00 96 1013.9
20260905130522 63 101 2.0 5.0 0.00 0.00 0.00 96 1013.8
20260905130039 63 67 1.0 7.0 0.00 0.00 0.00 96 1013.9
20260905125519 63 34 1.0 7.0 0.00 0.00 0.00 96 1014.0
20260905125019 63 57 1.0 3.0 0.00 0.00 0.00 96 1013.8
20260905124537 63 66 1.0 3.0 0.00 0.00 0.00 95 1013.8
20260905124017 63 40 1.0 3.0 0.00 0.00 0.00 95 1013.6
20260905123516 63 54 1.0 3.0 0.00 0.00 0.00 96 1013.5
20260905123036 63 44 1.0 4.0 0.00 0.00 0.00 95 1013.5
20260905122522 63 65 1.0 4.0 0.00 0.00 0.00 95 1013.3
20260905122025 63 76 1.0 3.0 0.00 0.00 0.00 95 1013.3
20260905121540 63 45 1.0 4.0 0.00 0.00 0.00 95 1013.2
20260905121021 63 55 1.0 4.0 0.00 0.00 0.00 96 1013.1
20260905120517 63 65 1.0 5.0 0.00 0.00 0.00 95 1013.1
20260905120038 63 59 1.0 5.0 0.00 0.00 0.00 95 1013.2
20260905115518 62 65 1.0 3.0 0.00 0.00 0.00 95 1013.2
20260905115017 62 92 1.0 2.0 0.00 0.00 0.00 95 1013.3
20260905114537 62 53 1.0 2.0 0.00 0.00 0.00 95 1013.4
20260905114017 62 85 0.0 3.0 0.00 0.00 0.00 95 1013.4
20260905113519 62 62 1.0 3.0 0.00 0.00 0.00 95 1013.3
20260905113037 62 68 1.0 3.0 0.00 0.00 0.00 95 1013.4
20260905112520 63 63 0.0 3.0 0.00 0.00 0.00 95 1013.2
20260905112019 62 64 1.0 3.0 0.00 0.00 0.00 95 1013.2
20260905111538 63 0 1.0 3.0 0.00 0.00 0.00 95 1013.1
20260905111021 63 72 0.0 3.0 0.00 0.00 0.00 95 1013.1
20260905110518 63 141 1.0 3.0 0.00 0.00 0.00 95 1013.1
20260905110039 63 132 1.0 4.0 0.00 0.00 0.00 95 1013.1
20260905105517 63 140 1.0 4.0 0.00 0.00 0.00 95 1013.1
20260905105021 63 98 1.0 4.0 0.00 0.00 0.00 95 1013.1
20260905104536 63 59 1.0 4.0 0.00 0.00 0.00 95 1012.9
20260905104017 63 61 1.0 4.0 0.00 0.00 0.00 95 1013.0
20260905103517 63 100 1.0 3.0 0.00 0.00 0.00 95 1013.0
20260905103044 64 88 1.0 10.0 0.00 0.00 0.00 96 1013.1
20260905102519 64 117 4.0 12.0 0.00 0.00 0.00 95 1013.2
20260905102019 64 132 3.0 12.0 0.00 0.00 0.00 95 1013.0
20260905101537 64 117 3.0 9.0 0.00 0.00 0.00 96 1013.0
20260905101016 63 0 1.0 11.0 0.00 0.00 0.00 95 1013.0
20260905100520 63 74 1.0 11.0 0.00 0.00 0.00 95 1012.8
20260905100040 64 119 4.0 11.0 0.00 0.00 0.00 95 1012.9
20260905095517 63 119 1.0 7.0 0.00 0.00 0.00 95 1012.7
20260905095020 63 115 1.0 11.0 0.00 0.00 0.00 95 1012.5
20260905094540 64 72 6.0 11.0 0.00 0.00 0.00 95 1012.7
20260905094019 63 128 6.0 10.0 0.00 0.00 0.00 95 1012.6
20260905093518 63 139 2.0 7.0 0.00 0.00 0.00 94 1013.0
20260905093048 63 55 1.0 4.0 0.00 0.00 0.00 95 1012.5
20260905092517 63 77 1.0 6.0 0.00 0.00 0.00 94 1012.2
20260905092019 64 68 1.0 6.0 0.00 0.00 0.00 94 1011.8
20260905091540 64 59 2.0 5.0 0.00 0.00 0.00 94 1011.8
20260905091022 64 117 2.0 5.0 0.00 0.00 0.00 95 1012.0
20260905090518 63 0 1.0 3.0 0.00 0.00 0.00 94 1012.0
20260905090038 64 70 1.0 6.0 0.00 0.00 0.00 93 1011.9
20260905085521 64 117 2.0 6.0 0.00 0.00 0.00 94 1011.9
20260905085018 63 80 1.0 3.0 0.00 0.00 0.00 93 1012.2
20260905084541 64 34 1.0 3.0 0.00 0.00 0.00 94 1012.4
20260905084021 64 91 1.0 4.0 0.00 0.00 0.00 94 1012.4
20260905083520 64 58 1.0 4.0 0.00 0.00 0.00 94 1012.5
20260905083041 64 28 1.0 3.0 0.00 0.00 0.00 93 1012.5
20260905082517 64 33 0.0 4.0 0.00 0.00 0.00 93 1012.7
20260905082018 64 82 1.0 6.0 0.00 0.00 0.00 94 1012.7
20260905081538 64 123 0.0 6.0 0.00 0.00 0.00 93 1012.6
20260905081019 65 105 1.0 6.0 0.00 0.00 0.00 95 1012.7
20260905080517 64 0 1.0 4.0 0.00 0.00 0.00 93 1012.7
20260905080040 64 0 1.0 4.0 0.00 0.00 0.00 94 1012.5
20260905075518 64 88 1.0 3.0 0.00 0.00 0.00 94 1012.5
20260905075021 64 115 0.0 3.0 0.00 0.00 0.00 93 1012.7
20260905074537 64 47 0.0 2.0 0.00 0.00 0.00 93 1012.7
20260905074019 63 0 0.0 2.0 0.00 0.00 0.00 93 1012.7
20260905073519 63 44 0.0 2.0 0.00 0.00 0.00 92 1012.7
20260905073038 64 44 0.0 1.0 0.00 0.00 0.00 92 1012.7
20260905072518 64 0 0.0 1.0 0.00 0.00 0.00 92 1012.8
20260905072019 64 0 0.0 2.0 0.00 0.00 0.00 91 1012.8
20260905071540 64 44 0.0 2.0 0.00 0.00 0.00 91 1013.1
20260905071021 64 44 0.0 2.0 0.00 0.00 0.00 91 1012.8
20260905070520 64 44 0.0 2.0 0.00 0.00 0.00 91 1012.9
20260905070039 64 0 0.0 0.0 0.00 0.00 0.00 90 1012.8
20260905065526 64 0 0.0 0.0 0.00 0.00 0.00 90 1013.1
20260905065020 64 0 0.0 0.0 0.00 0.00 0.00 91 1013.1
20260905064540 65 0 0.0 0.0 0.00 0.00 0.00 90 1013.1
20260905064019 65 0 0.0 2.0 0.00 0.00 0.00 90 1013.0
20260905063520 65 0 0.0 2.0 0.00 0.00 0.00 90 1013.0
20260905063038 65 44 0.0 2.0 0.00 0.00 0.00 90 1013.0
20260905062517 65 63 0.0 2.0 0.00 0.00 0.00 90 1013.0